JAL659 RJTT-RJKA

Flight info

Callsign JAL659
Flight time 2h 1m
Altitude 36000
Route LAXAS Y56 TOHME Y54 KOHWA Y12 AYANO Y128 LAXEL Y52 TONAR Y521 TUMGI
Aircraft B738/M-SDE2E3FGHIRWXY/LB1

Departure

Time 2026-05-01 08:14
Airport Tokyo Haneda International Airport (RJTT)

Arrival

Time 2026-05-01 10:15
Airport Amami Airport (RJKA)
Time Latitude Longitude Altitude Speed Heading
2026-05-01 07:50 35.54531 139.78458 26 ft 0 kts 77°
2026-05-01 08:03 35.54529 139.78444 25 ft 3 kts 77°
2026-05-01 08:04 35.54520 139.78396 23 ft 3 kts 72°
2026-05-01 08:04 35.54498 139.78363 23 ft 3 kts
2026-05-01 08:05 35.54483 139.78365 25 ft 1 kts 329°
2026-05-01 08:07 35.54505 139.78349 24 ft 6 kts 329°
2026-05-01 08:08 35.54552 139.78315 24 ft 10 kts 329°
2026-05-01 08:08 35.54599 139.78159 21 ft 11 kts 311°
2026-05-01 08:09 35.54725 139.78066 22 ft 10 kts 330°
2026-05-01 08:09 35.54786 139.78023 21 ft 10 kts 329°
2026-05-01 08:09 35.54848 139.77979 20 ft 11 kts 329°
2026-05-01 08:10 35.54988 139.77879 21 ft 12 kts 330°
2026-05-01 08:10 35.55124 139.77782 23 ft 11 kts 330°
2026-05-01 08:11 35.55259 139.77687 22 ft 13 kts 330°
2026-05-01 08:11 35.55439 139.77560 22 ft 16 kts 330°
2026-05-01 08:12 35.55626 139.77427 21 ft 15 kts 330°
2026-05-01 08:12 35.55712 139.77365 20 ft 13 kts 330°
2026-05-01 08:12 35.55720 139.77232 21 ft 10 kts 213°
2026-05-01 08:13 35.55663 139.77187 23 ft 10 kts 210°
2026-05-01 08:13 35.55600 139.77191 26 ft 9 kts 154°
2026-05-01 08:13 35.55265 139.77426 22 ft 82 kts 150°
2026-05-01 08:14 35.54576 139.77913 28 ft 144 kts 152°
2026-05-01 08:14 35.53676 139.78583 646 ft 151 kts 154°
2026-05-01 08:14 35.52775 139.79248 1511 ft 151 kts 160°
2026-05-01 08:14 35.51830 139.79896 2215 ft 158 kts 162°
2026-05-01 08:15 35.50868 139.80557 3036 ft 158 kts 162°
2026-05-01 08:15 35.48768 139.82002 4075 ft 190 kts 160°
2026-05-01 08:15 35.47602 139.82822 4582 ft 198 kts 160°
2026-05-01 08:16 35.46372 139.83686 5053 ft 210 kts 159°
2026-05-01 08:16 35.45085 139.84607 5606 ft 217 kts 159°
2026-05-01 08:16 35.43685 139.85336 6001 ft 223 kts 179°
2026-05-01 08:16 35.42140 139.84986 6307 ft 233 kts 210°
2026-05-01 08:17 35.40786 139.83893 7094 ft 236 kts 219°
2026-05-01 08:17 35.39521 139.82615 7976 ft 235 kts 219°
2026-05-01 08:17 35.38254 139.81362 8777 ft 239 kts 218°
2026-05-01 08:17 35.36935 139.80084 9550 ft 243 kts 218°
2026-05-01 08:18 35.35603 139.78801 10328 ft 246 kts 218°
2026-05-01 08:18 35.32661 139.75975 10774 ft 292 kts 218°
2026-05-01 08:19 35.29284 139.72630 11291 ft 327 kts 220°
2026-05-01 08:19 35.27545 139.70803 11935 ft 330 kts 221°
2026-05-01 08:19 35.25809 139.68970 12709 ft 330 kts 221°
2026-05-01 08:19 35.24068 139.67136 13467 ft 331 kts 220°
2026-05-01 08:20 35.22339 139.65322 14129 ft 331 kts 220°
2026-05-01 08:20 35.20589 139.63491 14835 ft 331 kts 219°
2026-05-01 08:20 35.18838 139.61664 15533 ft 330 kts 219°
2026-05-01 08:20 35.17087 139.59838 16196 ft 331 kts 219°
2026-05-01 08:21 35.15334 139.58012 16839 ft 331 kts 218°
2026-05-01 08:21 35.13578 139.56184 17465 ft 332 kts 218°
2026-05-01 08:21 35.11817 139.54353 18012 ft 333 kts 218°
2026-05-01 08:21 35.10049 139.52516 18490 ft 335 kts 218°
2026-05-01 08:22 35.08466 139.50390 18938 ft 343 kts 229°
2026-05-01 08:22 35.07625 139.48738 19251 ft 349 kts 235°
2026-05-01 08:22 35.06693 139.45955 19474 ft 362 kts 246°
2026-05-01 08:22 35.06152 139.42942 19516 ft 365 kts 249°
2026-05-01 08:23 35.05677 139.39886 19522 ft 367 kts 250°
2026-05-01 08:23 35.05206 139.36824 19531 ft 367 kts 249°
2026-05-01 08:23 35.04721 139.33762 19532 ft 366 kts 249°
2026-05-01 08:23 35.04224 139.30719 19530 ft 366 kts 249°
2026-05-01 08:24 35.03719 139.27685 19531 ft 365 kts 249°
2026-05-01 08:24 35.03209 139.24646 19534 ft 365 kts 249°
2026-05-01 08:24 35.02698 139.21610 19534 ft 365 kts 249°
2026-05-01 08:24 35.02188 139.18580 19532 ft 365 kts 249°
2026-05-01 08:25 35.01677 139.15546 19534 ft 366 kts 249°
2026-05-01 08:25 35.01157 139.12473 19745 ft 371 kts 249°
2026-05-01 08:25 35.00643 139.09427 20283 ft 371 kts 249°
2026-05-01 08:25 35.00124 139.06344 20816 ft 372 kts 249°
2026-05-01 08:26 34.99596 139.03237 21255 ft 374 kts 249°
2026-05-01 08:26 34.99071 139.00127 21773 ft 375 kts 248°
2026-05-01 08:26 34.98666 138.96952 22173 ft 386 kts 254°
2026-05-01 08:26 34.98487 138.93668 22640 ft 389 kts 255°
2026-05-01 08:27 34.98325 138.90360 22959 ft 393 kts 256°
2026-05-01 08:27 34.98184 138.86996 23159 ft 398 kts 256°
2026-05-01 08:27 34.98024 138.83640 23475 ft 397 kts 255°
2026-05-01 08:27 34.97846 138.80268 23812 ft 399 kts 255°
2026-05-01 08:28 34.97664 138.76879 24129 ft 402 kts 256°
2026-05-01 08:28 34.97480 138.73458 24411 ft 405 kts 256°
2026-05-01 08:28 34.97293 138.70026 24689 ft 407 kts 256°
2026-05-01 08:28 34.97105 138.66572 24963 ft 409 kts 256°
2026-05-01 08:29 34.96918 138.63143 25229 ft 412 kts 257°
2026-05-01 08:29 34.96728 138.59653 25496 ft 414 kts 257°
2026-05-01 08:29 34.96537 138.56142 25746 ft 416 kts 257°
2026-05-01 08:29 34.96343 138.52610 25989 ft 418 kts 257°
2026-05-01 08:30 34.96148 138.49071 26219 ft 420 kts 258°
2026-05-01 08:30 34.95951 138.45500 26461 ft 422 kts 258°
2026-05-01 08:30 34.95752 138.41925 26703 ft 424 kts 258°
2026-05-01 08:30 34.95550 138.38325 26920 ft 426 kts 258°
2026-05-01 08:31 34.95347 138.34711 27138 ft 428 kts 258°
2026-05-01 08:31 34.95143 138.31091 27396 ft 429 kts 259°
2026-05-01 08:31 34.94938 138.27472 27725 ft 428 kts 259°
2026-05-01 08:31 34.94732 138.23847 28069 ft 427 kts 259°
2026-05-01 08:32 34.94525 138.20243 28390 ft 427 kts 259°
2026-05-01 08:32 34.94316 138.16626 28636 ft 428 kts 259°
2026-05-01 08:32 34.94105 138.13002 28871 ft 429 kts 259°
2026-05-01 08:32 34.93893 138.09378 29276 ft 426 kts 259°
2026-05-01 08:33 34.93683 138.05796 29624 ft 425 kts 259°
2026-05-01 08:33 34.93471 138.02223 29822 ft 426 kts 260°
2026-05-01 08:33 34.93254 137.98603 29992 ft 428 kts 260°
2026-05-01 08:33 34.93038 137.94984 30202 ft 429 kts 260°
2026-05-01 08:34 34.92822 137.91360 30464 ft 428 kts 260°
2026-05-01 08:34 34.92607 137.87737 30714 ft 428 kts 261°
2026-05-01 08:34 34.92386 137.84112 30889 ft 430 kts 260°
2026-05-01 08:34 34.92163 137.80475 31097 ft 430 kts 261°
2026-05-01 08:35 34.91941 137.76840 31334 ft 430 kts 261°
2026-05-01 08:35 34.91718 137.73204 31598 ft 430 kts 261°
2026-05-01 08:35 34.91461 137.69573 31795 ft 429 kts 258°
2026-05-01 08:35 34.90905 137.66013 32030 ft 426 kts 251°
2026-05-01 08:36 34.89957 137.62611 32294 ft 422 kts 246°
2026-05-01 08:36 34.88917 137.59265 32504 ft 423 kts 247°
2026-05-01 08:36 34.87883 137.55913 32687 ft 424 kts 247°
2026-05-01 08:36 34.86861 137.52538 32895 ft 424 kts 248°
2026-05-01 08:37 34.85864 137.49221 33133 ft 423 kts 248°
2026-05-01 08:37 34.84860 137.45850 33344 ft 424 kts 248°
2026-05-01 08:37 34.83881 137.42461 33550 ft 424 kts 249°
2026-05-01 08:37 34.82915 137.39065 33741 ft 424 kts 249°
2026-05-01 08:38 34.81952 137.35672 33919 ft 424 kts 249°
2026-05-01 08:38 34.80989 137.32289 34112 ft 423 kts 249°
2026-05-01 08:38 34.80021 137.28900 34306 ft 423 kts 249°
2026-05-01 08:38 34.79054 137.25529 34501 ft 422 kts 249°
2026-05-01 08:39 34.78085 137.22157 34717 ft 421 kts 249°
2026-05-01 08:39 34.77432 137.19890 34879 ft 420 kts 249°
2026-05-01 08:40 34.77235 137.19205 34938 ft 419 kts 249°
2026-05-01 08:40 34.76497 137.16646 35111 ft 418 kts 249°
2026-05-01 08:40 34.75535 137.13312 35310 ft 418 kts 249°
2026-05-01 08:41 34.74569 137.09968 35444 ft 419 kts 249°
2026-05-01 08:41 34.73601 137.06617 35541 ft 419 kts 249°
2026-05-01 08:41 34.71567 136.99993 35557 ft 418 kts 242°
2026-05-01 08:42 34.68267 136.94184 35571 ft 420 kts 230°
2026-05-01 08:42 34.63834 136.89512 35577 ft 424 kts 220°
2026-05-01 08:43 34.59108 136.85219 35586 ft 425 kts 220°
2026-05-01 08:43 34.54380 136.80905 35592 ft 425 kts 220°
2026-05-01 08:44 34.49703 136.76600 35602 ft 424 kts 220°
2026-05-01 08:44 34.45008 136.72269 35612 ft 423 kts 220°
2026-05-01 08:45 34.40328 136.67958 35623 ft 421 kts 221°
2026-05-01 08:45 34.35671 136.63674 35618 ft 420 kts 221°
2026-05-01 08:46 34.31017 136.59401 35626 ft 419 kts 221°
2026-05-01 08:46 34.26433 136.55136 35619 ft 418 kts 222°
2026-05-01 08:47 34.21843 136.50816 35626 ft 418 kts 222°
2026-05-01 08:47 34.17253 136.46509 35631 ft 417 kts 222°
2026-05-01 08:48 34.12659 136.42212 35641 ft 417 kts 222°
2026-05-01 08:48 34.07889 136.38180 35633 ft 423 kts 213°
2026-05-01 08:49 34.02657 136.34901 35636 ft 424 kts 213°
2026-05-01 08:49 33.97408 136.31639 35642 ft 424 kts 213°
2026-05-01 08:50 33.92173 136.28362 35647 ft 424 kts 214°
2026-05-01 08:50 33.86970 136.25093 35655 ft 424 kts 214°
2026-05-01 08:51 33.81732 136.21800 35661 ft 425 kts 214°
2026-05-01 08:51 33.76485 136.18507 35662 ft 426 kts 214°
2026-05-01 08:52 33.71225 136.15210 35670 ft 426 kts 214°
2026-05-01 08:52 33.65952 136.11910 35679 ft 427 kts 214°
2026-05-01 08:53 33.60670 136.08609 35686 ft 428 kts 214°
2026-05-01 08:53 33.55408 136.05325 35689 ft 429 kts 214°
2026-05-01 08:54 33.50104 136.02020 35693 ft 430 kts 214°
2026-05-01 08:54 33.44789 135.98712 35699 ft 431 kts 214°
2026-05-01 08:55 33.39462 135.95402 35697 ft 432 kts 214°
2026-05-01 08:55 33.34130 135.92094 35703 ft 432 kts 214°
2026-05-01 08:56 33.28790 135.88785 35709 ft 432 kts 214°
2026-05-01 08:56 33.23449 135.85479 35716 ft 432 kts 215°
2026-05-01 08:57 33.18110 135.82180 35727 ft 432 kts 215°
2026-05-01 08:57 33.12779 135.78890 35739 ft 431 kts 215°
2026-05-01 08:58 33.07458 135.75611 35745 ft 430 kts 215°
2026-05-01 08:58 33.02174 135.72359 35745 ft 429 kts 215°
2026-05-01 08:59 32.96841 135.69082 35751 ft 428 kts 216°
2026-05-01 08:59 32.91586 135.65857 35752 ft 427 kts 216°
2026-05-01 09:00 32.86301 135.62618 35752 ft 425 kts 216°
2026-05-01 09:00 32.81050 135.59404 35758 ft 424 kts 217°
2026-05-01 09:01 32.75808 135.56199 35765 ft 423 kts 217°
2026-05-01 09:01 32.70591 135.53014 35769 ft 421 kts 217°
2026-05-01 09:02 32.65386 135.49841 35766 ft 420 kts 217°
2026-05-01 09:02 32.60200 135.46683 35771 ft 418 kts 217°
2026-05-01 09:03 32.55045 135.43547 35775 ft 417 kts 218°
2026-05-01 09:03 32.49884 135.40412 35786 ft 417 kts 218°
2026-05-01 09:04 32.44723 135.37281 35790 ft 416 kts 218°
2026-05-01 09:04 32.39575 135.34163 35791 ft 415 kts 218°
2026-05-01 09:05 32.34431 135.31050 35793 ft 414 kts 218°
2026-05-01 09:05 32.29303 135.27952 35794 ft 413 kts 219°
2026-05-01 09:06 32.24187 135.24864 35796 ft 412 kts 219°
2026-05-01 09:06 32.19944 135.22305 35799 ft 411 kts 219°
2026-05-01 09:07 32.14022 135.18739 35804 ft 410 kts 219°
2026-05-01 09:07 32.11561 135.17102 35802 ft 399 kts 226°
2026-05-01 09:07 32.09379 135.15142 35810 ft 390 kts 231°
2026-05-01 09:08 32.05733 135.10540 35824 ft 381 kts 241°
2026-05-01 09:08 32.02504 135.05555 35816 ft 384 kts 242°
2026-05-01 09:09 31.99785 135.01361 35816 ft 385 kts 242°
2026-05-01 09:09 31.96548 134.96395 35814 ft 384 kts 242°
2026-05-01 09:10 31.93290 134.91414 35820 ft 383 kts 242°
2026-05-01 09:10 31.90035 134.86450 35819 ft 382 kts 242°
2026-05-01 09:11 31.86793 134.81511 35823 ft 381 kts 242°
2026-05-01 09:11 31.83558 134.76589 35824 ft 380 kts 242°
2026-05-01 09:12 31.80323 134.71674 35824 ft 379 kts 242°
2026-05-01 09:12 31.77099 134.66780 35831 ft 378 kts 243°
2026-05-01 09:13 31.73877 134.61896 35831 ft 378 kts 243°
2026-05-01 09:13 31.70657 134.57021 35841 ft 378 kts 243°
2026-05-01 09:14 31.67435 134.52149 35841 ft 377 kts 243°
2026-05-01 09:14 31.64212 134.47282 35840 ft 377 kts 243°
2026-05-01 09:15 31.61019 134.42468 35847 ft 376 kts 243°
2026-05-01 09:15 31.57804 134.37627 35850 ft 375 kts 243°
2026-05-01 09:16 31.54598 134.32803 35851 ft 375 kts 243°
2026-05-01 09:17 31.49791 134.25584 35854 ft 374 kts 243°
2026-05-01 09:17 31.44992 134.18389 35862 ft 373 kts 243°
2026-05-01 09:18 31.40203 134.11223 35862 ft 372 kts 243°
2026-05-01 09:19 31.35422 134.04081 35872 ft 371 kts 242°
2026-05-01 09:20 31.30643 133.96957 35881 ft 371 kts 242°
2026-05-01 09:21 31.24288 133.87502 35879 ft 371 kts 242°
2026-05-01 09:21 31.19503 133.80397 35875 ft 371 kts 242°
2026-05-01 09:22 31.13103 133.70915 35886 ft 372 kts 242°
2026-05-01 09:23 31.08289 133.63796 35897 ft 373 kts 242°
2026-05-01 09:24 31.03475 133.56692 35893 ft 374 kts 241°
2026-05-01 09:25 30.96992 133.47147 35897 ft 377 kts 241°
2026-05-01 09:26 30.92098 133.39953 35906 ft 378 kts 241°
2026-05-01 09:26 30.87182 133.32738 35912 ft 380 kts 241°
2026-05-01 09:27 30.82244 133.25506 35919 ft 381 kts 241°
2026-05-01 09:28 30.78936 133.20667 35918 ft 382 kts 241°
2026-05-01 09:28 30.75620 133.15823 35921 ft 383 kts 240°
2026-05-01 09:29 30.70652 133.08578 35921 ft 384 kts 240°
2026-05-01 09:30 30.65634 133.01273 35928 ft 386 kts 240°
2026-05-01 09:30 30.60606 132.93967 35937 ft 387 kts 240°
2026-05-01 09:31 30.57239 132.89081 35935 ft 387 kts 240°
2026-05-01 09:32 30.52182 132.81756 35945 ft 388 kts 240°
2026-05-01 09:32 30.47130 132.74451 35941 ft 389 kts 239°
2026-05-01 09:33 30.43741 132.69559 35948 ft 389 kts 239°
2026-05-01 09:34 30.38654 132.62225 35956 ft 389 kts 239°
2026-05-01 09:34 30.33557 132.54892 35963 ft 390 kts 239°
2026-05-01 09:35 30.28448 132.47554 35968 ft 391 kts 239°
2026-05-01 09:36 30.25026 132.42647 35966 ft 391 kts 239°
2026-05-01 09:36 30.21607 132.37749 35966 ft 392 kts 239°
2026-05-01 09:37 30.18179 132.32846 35972 ft 392 kts 239°
2026-05-01 09:37 30.13050 132.25520 35981 ft 393 kts 239°
2026-05-01 09:38 30.07881 132.18150 35985 ft 394 kts 239°
2026-05-01 09:39 30.02700 132.10777 35979 ft 395 kts 239°
2026-05-01 09:39 29.99231 132.05848 35986 ft 395 kts 239°
2026-05-01 09:40 29.94024 131.98459 35994 ft 396 kts 239°
2026-05-01 09:41 29.90538 131.93520 35992 ft 397 kts 239°
2026-05-01 09:41 29.85326 131.86145 36000 ft 398 kts 239°
2026-05-01 09:42 29.81842 131.81198 35995 ft 396 kts 241°
2026-05-01 09:43 29.75961 131.70622 35997 ft 392 kts 245°
2026-05-01 09:43 29.73042 131.65304 36006 ft 393 kts 244°
2026-05-01 09:44 29.68644 131.57331 36008 ft 394 kts 244°
2026-05-01 09:45 29.65697 131.52004 36009 ft 395 kts 244°
2026-05-01 09:45 29.61260 131.43998 36014 ft 397 kts 244°
2026-05-01 09:46 29.58286 131.38642 36012 ft 397 kts 244°
2026-05-01 09:46 29.55307 131.33279 35743 ft 403 kts 244°
2026-05-01 09:47 29.53811 131.30586 35202 ft 405 kts 244°
2026-05-01 09:47 29.52296 131.27865 34582 ft 403 kts 244°
2026-05-01 09:47 29.50785 131.25156 33904 ft 404 kts 244°
2026-05-01 09:47 29.49266 131.22433 33123 ft 405 kts 243°
2026-05-01 09:48 29.47746 131.19707 32406 ft 405 kts 243°
2026-05-01 09:48 29.46234 131.17002 31919 ft 400 kts 243°
2026-05-01 09:48 29.44737 131.14328 31413 ft 396 kts 243°
2026-05-01 09:48 29.43259 131.11687 30924 ft 392 kts 243°
2026-05-01 09:49 29.41794 131.09071 30439 ft 388 kts 243°
2026-05-01 09:49 29.40343 131.06477 29933 ft 385 kts 243°
2026-05-01 09:49 29.38902 131.03904 29390 ft 381 kts 243°
2026-05-01 09:49 29.37478 131.01364 28888 ft 376 kts 243°
2026-05-01 09:50 29.36068 130.98850 28383 ft 372 kts 243°
2026-05-01 09:50 29.34676 130.96368 27906 ft 368 kts 243°
2026-05-01 09:50 29.33295 130.93910 27423 ft 365 kts 243°
2026-05-01 09:50 29.31929 130.91477 26944 ft 361 kts 243°
2026-05-01 09:51 29.30592 130.89096 26489 ft 358 kts 243°
2026-05-01 09:51 29.29230 130.86675 26027 ft 355 kts 244°
2026-05-01 09:51 29.27896 130.84303 25568 ft 353 kts 244°
2026-05-01 09:51 29.26571 130.81948 25116 ft 351 kts 244°
2026-05-01 09:52 29.25269 130.79636 24664 ft 349 kts 244°
2026-05-01 09:52 29.23955 130.77302 24208 ft 348 kts 244°
2026-05-01 09:52 29.22644 130.74976 23740 ft 347 kts 244°
2026-05-01 09:52 29.21334 130.72655 23220 ft 346 kts 244°
2026-05-01 09:53 29.20034 130.70350 22724 ft 343 kts 244°
2026-05-01 09:53 29.18741 130.68063 22268 ft 341 kts 244°
2026-05-01 09:53 29.17459 130.65795 21814 ft 338 kts 244°
2026-05-01 09:53 29.16186 130.63544 21379 ft 336 kts 244°
2026-05-01 09:54 29.14921 130.61307 20935 ft 334 kts 244°
2026-05-01 09:54 29.13662 130.59082 20506 ft 332 kts 243°
2026-05-01 09:54 29.12421 130.56889 20088 ft 333 kts 243°
2026-05-01 09:54 29.11160 130.54659 19646 ft 334 kts 243°
2026-05-01 09:55 29.09884 130.52403 19205 ft 342 kts 243°
2026-05-01 09:55 29.08581 130.50103 18733 ft 346 kts 243°
2026-05-01 09:55 29.07271 130.47799 18254 ft 345 kts 243°
2026-05-01 09:55 29.06390 130.46251 17969 ft 342 kts 243°
2026-05-01 09:56 29.05103 130.43995 17654 ft 336 kts 243°
2026-05-01 09:56 29.03852 130.41801 17357 ft 332 kts 242°
2026-05-01 09:56 29.02595 130.39594 17073 ft 333 kts 242°
2026-05-01 09:56 29.01322 130.37355 16779 ft 338 kts 242°
2026-05-01 09:57 29.00034 130.35091 16483 ft 340 kts 242°
2026-05-01 09:57 28.98750 130.32839 16187 ft 337 kts 242°
2026-05-01 09:57 28.97468 130.30594 15895 ft 336 kts 242°
2026-05-01 09:57 28.96194 130.28362 15597 ft 335 kts 242°
2026-05-01 09:58 28.94921 130.26133 15325 ft 334 kts 242°
2026-05-01 09:58 28.93651 130.23910 15041 ft 334 kts 242°
2026-05-01 09:58 28.92383 130.21692 14747 ft 334 kts 242°
2026-05-01 09:58 28.91113 130.19470 14454 ft 334 kts 242°
2026-05-01 09:59 28.89843 130.17251 14170 ft 334 kts 242°
2026-05-01 09:59 28.88571 130.15028 13855 ft 335 kts 242°
2026-05-01 09:59 28.87293 130.12797 13524 ft 335 kts 241°
2026-05-01 09:59 28.86019 130.10574 13213 ft 334 kts 241°
2026-05-01 10:00 28.84768 130.08393 12925 ft 332 kts 241°
2026-05-01 10:00 28.83500 130.06182 12440 ft 334 kts 241°
2026-05-01 10:00 28.82238 130.03983 12088 ft 329 kts 240°
2026-05-01 10:00 28.80992 130.01816 11776 ft 323 kts 240°
2026-05-01 10:01 28.79769 129.99689 11480 ft 317 kts 240°
2026-05-01 10:01 28.78571 129.97605 11185 ft 311 kts 240°
2026-05-01 10:01 28.77392 129.95554 10899 ft 306 kts 240°
2026-05-01 10:01 28.76234 129.93540 10633 ft 301 kts 240°
2026-05-01 10:02 28.75098 129.91566 10359 ft 296 kts 240°
2026-05-01 10:02 28.73977 129.89620 10120 ft 290 kts 240°
2026-05-01 10:02 28.72850 129.87764 10044 ft 280 kts 236°
2026-05-01 10:02 28.71611 129.86115 10020 ft 268 kts 232°
2026-05-01 10:03 28.70378 129.84586 9993 ft 256 kts 232°
2026-05-01 10:03 28.69191 129.83124 9709 ft 254 kts 232°
2026-05-01 10:03 28.67973 129.81611 9171 ft 263 kts 232°
2026-05-01 10:03 28.66734 129.80064 8819 ft 264 kts 232°
2026-05-01 10:04 28.63953 129.76578 8175 ft 260 kts 232°
2026-05-01 10:04 28.62738 129.75049 7843 ft 261 kts 232°
2026-05-01 10:04 28.61526 129.73521 7569 ft 259 kts 232°
2026-05-01 10:05 28.60339 129.72025 7325 ft 257 kts 232°
2026-05-01 10:05 28.59143 129.70518 7084 ft 256 kts 232°
2026-05-01 10:05 28.57950 129.69013 6849 ft 256 kts 232°
2026-05-01 10:05 28.56758 129.67509 6614 ft 255 kts 232°
2026-05-01 10:06 28.55570 129.66011 6373 ft 255 kts 232°
2026-05-01 10:06 28.54380 129.64511 6117 ft 255 kts 232°
2026-05-01 10:06 28.53195 129.63017 5876 ft 254 kts 232°
2026-05-01 10:06 28.52411 129.62029 5719 ft 254 kts 232°
2026-05-01 10:07 28.51223 129.60532 5480 ft 255 kts 232°
2026-05-01 10:07 28.50034 129.59035 5251 ft 255 kts 232°
2026-05-01 10:07 28.48839 129.57531 5019 ft 257 kts 232°
2026-05-01 10:07 28.47638 129.56022 4784 ft 258 kts 232°
2026-05-01 10:08 28.44597 129.53873 4294 ft 272 kts 194°
2026-05-01 10:08 28.42724 129.53488 4025 ft 273 kts 193°
2026-05-01 10:08 28.40860 129.53109 3757 ft 271 kts 193°
2026-05-01 10:09 28.39039 129.52729 3504 ft 268 kts 193°
2026-05-01 10:09 28.37208 129.52339 3300 ft 260 kts 194°
2026-05-01 10:09 28.35451 129.52246 3012 ft 258 kts 169°
2026-05-01 10:09 28.33883 129.53112 2758 ft 246 kts 138°
2026-05-01 10:10 28.32845 129.54575 2551 ft 230 kts 117°
2026-05-01 10:10 28.32135 129.56151 2353 ft 221 kts 113°
2026-05-01 10:10 28.30874 129.59221 1916 ft 209 kts 113°
2026-05-01 10:11 28.30256 129.60697 1664 ft 205 kts 112°
2026-05-01 10:11 28.29845 129.62194 1395 ft 194 kts 82°
2026-05-01 10:11 28.30379 129.63430 1316 ft 169 kts 36°
2026-05-01 10:11 28.31281 129.64309 1313 ft 173 kts 38°
2026-05-01 10:12 28.32220 129.65103 1296 ft 165 kts 27°
2026-05-01 10:12 28.33196 129.65767 1285 ft 163 kts 24°
2026-05-01 10:12 28.35185 129.66898 1309 ft 157 kts 21°
2026-05-01 10:13 28.36135 129.67423 1315 ft 148 kts 21°
2026-05-01 10:13 28.37067 129.67937 1161 ft 148 kts 21°
2026-05-01 10:13 28.37993 129.68453 956 ft 147 kts 22°
2026-05-01 10:14 28.39777 129.69445 576 ft 142 kts 21°
2026-05-01 10:14 28.40664 129.69923 461 ft 142 kts 25°
2026-05-01 10:14 28.41562 129.70432 288 ft 144 kts 25°
2026-05-01 10:14 28.42442 129.70914 43 ft 136 kts 22°
2026-05-01 10:15 28.43102 129.71267 28 ft 53 kts 25°
2026-05-01 10:15 28.43286 129.71370 29 ft 25 kts 26°
2026-05-01 10:15 28.43424 129.71445 27 ft 12 kts 24°
2026-05-01 10:15 28.43489 129.71437 26 ft 10 kts 310°
2026-05-01 10:16 28.43521 129.71364 26 ft 10 kts 294°
2026-05-01 10:16 28.43516 129.71292 28 ft 10 kts 223°
2026-05-01 10:16 28.43397 129.71225 26 ft 9 kts 205°
2026-05-01 10:17 28.43335 129.71192 27 ft 11 kts 205°
2026-05-01 10:17 28.43175 129.71101 28 ft 13 kts 206°
2026-05-01 10:17 28.43107 129.71064 29 ft 7 kts 206°
2026-05-01 10:18 28.43092 129.70982 29 ft 6 kts 266°
2026-05-01 10:18 28.43104 129.70939 29 ft 6 kts 293°
2026-05-01 10:18 28.43119 129.70903 29 ft 4 kts 297°
2026-05-01 10:19 28.43123 129.70896 29 ft 0 kts 297°